Content
SEND FEEDBACK

Daily
Averages
Monthly
Summary
Mexico

COZUMEL, QUINTANA ROO


Home > North America > Mexico > Quintana Roo
Elevation: 15 feet     Latitude: 20 31N     Longitude: 086 56W

WEATHER
 
SELECT A DAY
Number of Records: 128,031;   Date Range: 1/1/95 - 11/24/14
 
SHARE

PRINT THIS DATA

[ ← Previous Day ]
WEATHER ALMANAC - JULY 11, 2014
[ Next Day → ]
[ °C ]   °F
Weather ElementAverageHighLow
Temperature79.2 °F86 °F (1:42 pm)71.6 °F (5:48 am)
Dewpoint75 °F77 °F (7:40 am)71.6 °F (2:45 am)
Humidity87.7 %100 % (1:46 am)70 % (2:41 pm)
Barometer30.03 in30.08 in (10:01 am)29.99 in (4:44 am)
Wind Speed7.2 mph16.1 mph (12:40 pm)
Weather ElementAverage
Visibility7.5 mi
Wind DirectionENE (69.6 °)

Weather ElementTotal
Precipitation---
Cooling Degree Days13.8 (Base 65)
Growing Degree Days28.8 (Base 50)
Averaged from 23 records on July 11, 2014
WEATHER CONDITIONS BREAKOUT
WIND DIRECTION BREAKOUT
WEATHER BY HOUR - JULY 11, 2014
[ °C ]   °F
Local TimeTemperatureDewpointHumidityBarometerVisibilityWind DirectionWind SpeedGust SpeedPrecipitationEventsConditions
1:46 AM75.2 °F75.2 °F100 %30.02 in7.0 miESE (110°)6.9 mphMostly Cloudy
2:45 AM73.4 °F71.6 °F94 %30.00 in7.0 miCalmScattered Clouds
3:40 AM75.2 °F73.4 °F94 %30.02 in7.0 miCalmScattered Clouds
4:44 AM73.4 °F73.4 °F100 %29.99 in7.0 miCalmScattered Clouds
5:48 AM71.6 °F71.6 °F100 %29.99 in7.0 miEast (90°)3.5 mphPartly Cloudy
6:46 AM73.4 °F73.4 °F100 %29.99 in7.0 miCalmPartly Cloudy
7:40 AM77.0 °F77.0 °F100 %30.02 in8.0 miEast (90°)4.6 mphPartly Cloudy
8:41 AM80.6 °F77.0 °F89 %30.05 in8.0 miESE (110°)8.1 mphScattered Clouds
10:01 AM84.2 °F77.0 °F79 %30.08 in8.0 miEast (80°)8.1 mphScattered Clouds
10:43 AM84.2 °F75.2 °F74 %30.06 in8.0 miNE (50°)13.8 mphMostly Cloudy
11:41 AM82.4 °F75.2 °F79 %30.07 in8.0 miENE (70°)11.5 mphMostly Cloudy
12:40 PM84.2 °F75.2 °F74 %30.04 in8.0 miNE (40°)16.1 mphMostly Cloudy
1:42 PM86.0 °F77.0 °F74 %30.04 in8.0 miENE (70°)16.1 mphMostly Cloudy
2:41 PM86.0 °F75.2 °F70 %30.03 in8.0 miENE (70°)16.1 mphScattered Clouds
3:43 PM86.0 °F77.0 °F74 %30.04 in8.0 miEast (80°)13.8 mphScattered Clouds
4:45 PM86.0 °F75.2 °F70 %30.00 in8.0 miEast (80°)13.8 mphScattered Clouds
5:44 PM80.6 °F75.2 °F84 %30.01 in8.0 miEast (90°)6.9 mphScattered Clouds
6:44 PM80.6 °F75.2 °F84 %29.99 in7.0 miEast (90°)5.8 mphScattered Clouds
7:47 PM78.8 °F75.2 °F89 %30.01 in7.0 miEast (90°)4.6 mphScattered Clouds
8:46 PM77.0 °F73.4 °F89 %30.02 in7.0 miEast (100°)5.8 mphPartly Cloudy
9:50 PM75.2 °F75.2 °F100 %30.07 in7.0 miEast (100°)3.5 mphPartly Cloudy
10:54 PM75.2 °F75.2 °F100 %30.05 in7.0 miEast (90°)3.5 mphPartly Cloudy
11:46 PM75.2 °F75.2 °F100 %30.05 in7.0 miEast (100°)3.5 mphPartly Cloudy
Hourly data recorded from MMCZ, located miles away from Cozumel, Quintana Roo







STORIES FROM OUR PARTNERS